Time,TemperatureF,DewpointF,PressureIn,WindDirection,WindDirectionDegrees,WindSpeedMPH,WindSpeedGustMPH,Humidity,HourlyPrecipIn,Conditions,Clouds,dailyrainin,SoftwareType,DateUTC
2013-07-25 00:02:00,80.5,75.9,28.93,South,178,4.5,5.8,86,0.00,,FEW,0.00,WeatherDisplay:10.37,2013-07-25 05:02:00,
2013-07-25 00:07:00,80.5,75.9,28.93,SSE,157,3.4,6.9,86,0.00,,FEW,0.00,WeatherDisplay:10.37,2013-07-25 05:07:00,
2013-07-25 00:12:00,80.5,75.9,28.93,SE,144,6.7,8.1,86,0.00,,FEW,0.00,WeatherDisplay:10.37,2013-07-25 05:12:00,
2013-07-25 00:17:00,80.5,75.9,28.93,SSE,158,6.2,9.2,86,0.00,,FEW,0.00,WeatherDisplay:10.37,2013-07-25 05:17:00,
2013-07-25 00:22:00,80.5,75.9,28.93,SE,135,5.7,9.2,86,0.00,,FEW,0.00,WeatherDisplay:10.37,2013-07-25 05:22:00,
2013-07-25 00:27:00,80.5,75.9,28.93,SE,143,5.8,6.9,86,0.00,,FEW,0.00,WeatherDisplay:10.37,2013-07-25 05:27:00,
2013-07-25 00:32:00,80.5,76.3,28.93,South,178,6.3,8.1,87,0.00,,FEW,0.00,WeatherDisplay:10.37,2013-07-25 05:32:00,
2013-07-25 00:37:00,80.5,76.3,28.93,SSE,164,3.9,6.9,87,0.00,,FEW,0.00,WeatherDisplay:10.37,2013-07-25 05:37:00,
2013-07-25 00:42:00,80.5,76.3,28.93,SE,132,4.8,6.9,87,0.00,,FEW,0.00,WeatherDisplay:10.37,2013-07-25 05:42:00,
2013-07-25 00:47:00,80.5,76.3,28.93,SE,143,4.6,5.8,87,0.00,,FEW,0.00,WeatherDisplay:10.37,2013-07-25 05:47:00,
2013-07-25 00:52:00,80.4,76.2,28.94,SE,126,4.7,6.9,87,0.00,,FEW,0.00,WeatherDisplay:10.37,2013-07-25 05:52:00,
2013-07-25 00:57:00,80.4,76.2,28.94,SE,128,3.3,6.9,87,0.00,,FEW,0.00,WeatherDisplay:10.37,2013-07-25 05:57:00,
2013-07-25 01:02:00,80.4,76.2,28.94,SSE,165,4.5,8.1,87,0.00,,FEW,0.00,WeatherDisplay:10.37,2013-07-25 06:02:00,
2013-07-25 01:07:00,80.3,75.7,28.94,SE,133,4.8,6.9,86,0.00,,FEW,0.00,WeatherDisplay:10.37,2013-07-25 06:07:00,
2013-07-25 01:12:00,80.3,75.7,28.94,SE,141,4.3,7.4,86,0.00,,FEW,0.00,WeatherDisplay:10.37,2013-07-25 06:12:00,
2013-07-25 01:17:00,80.3,75.7,28.94,SSE,148,3.7,5.8,86,0.00,,FEW,0.00,WeatherDisplay:10.37,2013-07-25 06:17:00,
2013-07-25 01:22:00,80.3,75.7,28.94,South,174,7.0,8.1,86,0.00,,FEW,0.00,WeatherDisplay:10.37,2013-07-25 06:22:00,
2013-07-25 01:27:00,80.3,75.4,28.94,SSE,159,4.6,5.8,85,0.00,,FEW,0.00,WeatherDisplay:10.37,2013-07-25 06:27:00,
2013-07-25 01:32:00,80.3,75.0,28.94,SSE,156,4.9,7.4,84,0.00,,FEW,0.00,WeatherDisplay:10.37,2013-07-25 06:32:00,
2013-07-25 01:37:00,80.3,75.0,28.94,SSE,147,5.8,8.4,84,0.00,,FEW,0.00,WeatherDisplay:10.37,2013-07-25 06:37:00,
2013-07-25 01:42:00,80.5,75.2,28.94,SE,144,4.1,5.2,84,0.00,,FEW,0.00,WeatherDisplay:10.37,2013-07-25 06:42:00,
2013-07-25 01:47:00,80.4,75.5,28.94,SSE,159,6.1,9.2,85,0.00,,FEW,0.00,WeatherDisplay:10.37,2013-07-25 06:47:00,
2013-07-25 01:52:00,80.4,75.5,28.94,SSE,152,4.4,5.8,85,0.00,,FEW,0.00,WeatherDisplay:10.37,2013-07-25 06:52:00,
2013-07-25 01:57:00,80.4,75.5,28.93,SSE,167,2.1,5.8,85,0.00,,FEW,0.00,WeatherDisplay:10.37,2013-07-25 06:57:00,
2013-07-25 02:02:00,80.3,75.4,28.94,SW,230,6.2,9.2,85,0.00,,FEW,0.00,WeatherDisplay:10.37,2013-07-25 07:02:00,
2013-07-25 02:07:00,80.3,75.0,28.94,SSE,157,1.6,8.1,84,0.00,,FEW,0.00,WeatherDisplay:10.37,2013-07-25 07:07:00,
2013-07-25 02:12:00,80.4,75.1,28.93,SSW,204,4.9,5.8,84,0.00,,FEW,0.00,WeatherDisplay:10.37,2013-07-25 07:12:00,
2013-07-25 02:17:00,80.3,75.0,28.93,South,185,3.3,6.9,84,0.00,,FEW,0.00,WeatherDisplay:10.37,2013-07-25 07:17:00,
2013-07-25 02:22:00,80.2,75.3,28.93,SSE,152,3.7,5.8,85,0.00,,FEW,0.00,WeatherDisplay:10.37,2013-07-25 07:22:00,
2013-07-25 02:27:00,80.1,75.2,28.93,SE,144,5.5,8.1,85,0.00,,FEW,0.00,WeatherDisplay:10.37,2013-07-25 07:27:00,
2013-07-25 02:32:00,80.1,75.2,28.93,ESE,123,4.0,9.2,85,0.00,,FEW,0.00,WeatherDisplay:10.37,2013-07-25 07:32:00,
2013-07-25 02:37:00,80.0,75.1,28.93,SW,225,5.3,7.4,85,0.00,,FEW,0.00,WeatherDisplay:10.37,2013-07-25 07:37:00,
2013-07-25 02:42:00,80.1,75.2,28.93,SSE,159,4.4,8.1,85,0.00,,FEW,0.00,WeatherDisplay:10.37,2013-07-25 07:42:00,
2013-07-25 02:47:00,80.1,75.2,28.93,SSE,154,2.6,6.9,85,0.00,,FEW,0.00,WeatherDisplay:10.37,2013-07-25 07:47:00,
2013-07-25 02:52:00,80.1,75.5,28.94,South,178,1.0,9.2,86,0.00,,FEW,0.00,WeatherDisplay:10.37,2013-07-25 07:52:00,
2013-07-25 02:57:00,80.0,75.4,28.94,SSE,168,3.1,4.6,86,0.00,,FEW,0.00,WeatherDisplay:10.37,2013-07-25 07:57:00,
2013-07-25 03:02:00,79.9,75.3,28.94,South,180,2.9,6.9,86,0.00,,FEW,0.00,WeatherDisplay:10.37,2013-07-25 08:02:00,
2013-07-25 03:07:00,79.9,75.3,28.94,SE,134,3.3,8.4,86,0.00,,FEW,0.00,WeatherDisplay:10.37,2013-07-25 08:07:00,
2013-07-25 03:12:00,79.9,75.3,28.94,SW,218,3.5,8.1,86,0.00,,FEW,0.00,WeatherDisplay:10.37,2013-07-25 08:12:00,
2013-07-25 03:17:00,79.9,75.3,28.94,SW,221,3.2,5.8,86,0.00,,FEW,0.00,WeatherDisplay:10.37,2013-07-25 08:17:00,
2013-07-25 03:22:00,79.9,75.3,28.94,SSE,165,5.0,7.4,86,0.00,,FEW,0.00,WeatherDisplay:10.37,2013-07-25 08:22:00,
2013-07-25 03:27:00,79.9,75.3,28.94,SW,224,0.9,5.8,86,0.00,,FEW,0.00,WeatherDisplay:10.37,2013-07-25 08:27:00,
2013-07-25 03:32:00,79.8,75.2,28.93,SSW,210,2.2,5.8,86,0.00,,FEW,0.00,WeatherDisplay:10.37,2013-07-25 08:32:00,
2013-07-25 03:37:00,79.7,75.5,28.93,SW,232,3.0,3.5,87,0.00,,FEW,0.00,WeatherDisplay:10.37,2013-07-25 08:37:00,
2013-07-25 03:42:00,79.6,75.4,28.94,SSW,199,1.1,2.1,87,0.00,,FEW,0.00,WeatherDisplay:10.37,2013-07-25 08:42:00,
2013-07-25 03:47:00,79.5,75.3,28.94,SE,135,2.2,2.2,87,0.00,,FEW,0.00,WeatherDisplay:10.37,2013-07-25 08:47:00,
2013-07-25 03:52:00,79.4,75.2,28.93,South,183,1.5,5.8,87,0.00,,FEW,0.00,WeatherDisplay:10.37,2013-07-25 08:52:00,
2013-07-25 03:57:00,79.4,75.5,28.93,SW,224,1.7,6.3,88,0.00,,FEW,0.00,WeatherDisplay:10.37,2013-07-25 08:57:00,
2013-07-25 04:02:00,79.4,75.5,28.93,SSE,158,3.6,5.8,88,0.00,,FEW,0.00,WeatherDisplay:10.37,2013-07-25 09:02:00,
2013-07-25 04:07:00,79.4,75.5,28.93,SE,140,2.2,3.5,88,0.00,,FEW,0.00,WeatherDisplay:10.37,2013-07-25 09:07:00,
2013-07-25 04:12:00,79.4,75.5,28.93,SSW,192,2.7,4.6,88,0.00,,FEW,0.00,WeatherDisplay:10.37,2013-07-25 09:12:00,
2013-07-25 04:17:00,79.3,75.4,28.93,SSE,147,1.7,5.8,88,0.00,,FEW,0.00,WeatherDisplay:10.37,2013-07-25 09:17:00,
2013-07-25 04:22:00,79.3,75.4,28.93,SW,223,1.2,4.6,88,0.00,,FEW,0.00,WeatherDisplay:10.37,2013-07-25 09:22:00,
2013-07-25 04:27:00,79.2,75.3,28.93,South,186,0.9,2.3,88,0.00,,FEW,0.00,WeatherDisplay:10.37,2013-07-25 09:27:00,
2013-07-25 04:32:00,79.2,75.7,28.93,SSE,164,0.4,2.1,89,0.00,,FEW,0.00,WeatherDisplay:10.37,2013-07-25 09:32:00,
2013-07-25 04:37:00,79.1,75.6,28.93,SSW,210,1.8,4.6,89,0.00,,FEW,0.00,WeatherDisplay:10.37,2013-07-25 09:37:00,
2013-07-25 04:42:00,79.1,75.6,28.93,SW,217,0.6,3.5,89,0.00,,FEW,0.00,WeatherDisplay:10.37,2013-07-25 09:42:00,
2013-07-25 04:47:00,79.1,75.6,28.93,SSW,202,0.8,3.5,89,0.00,,FEW,0.00,WeatherDisplay:10.37,2013-07-25 09:47:00,
2013-07-25 04:52:00,79.1,75.6,28.93,SW,235,2.1,2.3,89,0.00,,FEW,0.00,WeatherDisplay:10.37,2013-07-25 09:52:00,
2013-07-25 04:57:00,79.2,75.7,28.93,SSE,155,2.8,5.8,89,0.00,,FEW,0.00,WeatherDisplay:10.37,2013-07-25 09:57:00,
2013-07-25 05:02:00,79.3,75.8,28.94,SSE,166,0.7,4.6,89,0.00,,FEW,0.00,WeatherDisplay:10.37,2013-07-25 10:02:00,
2013-07-25 05:07:00,79.4,75.9,28.94,WSW,255,3.2,5.2,89,0.00,,FEW,0.00,WeatherDisplay:10.37,2013-07-25 10:07:00,
2013-07-25 05:12:00,79.5,76.0,28.94,SSE,164,1.3,4.6,89,0.00,,FEW,0.00,WeatherDisplay:10.37,2013-07-25 10:12:00,
2013-07-25 05:17:00,79.5,76.0,28.94,SW,223,1.1,3.5,89,0.00,,FEW,0.00,WeatherDisplay:10.37,2013-07-25 10:17:00,
2013-07-25 05:22:00,79.5,76.0,28.94,South,185,0.8,3.5,89,0.00,,FEW,0.00,WeatherDisplay:10.37,2013-07-25 10:22:00,
2013-07-25 05:27:00,79.5,76.0,28.94,West,263,1.5,3.5,89,0.00,,FEW,0.00,WeatherDisplay:10.37,2013-07-25 10:27:00,
2013-07-25 05:32:00,79.4,75.9,28.93,SSW,204,1.4,3.5,89,0.00,,FEW,0.00,WeatherDisplay:10.37,2013-07-25 10:32:00,
2013-07-25 05:37:00,79.3,75.8,28.94,SSW,207,0.0,3.5,89,0.00,,FEW,0.00,WeatherDisplay:10.37,2013-07-25 10:37:00,
2013-07-25 05:42:00,79.3,75.8,28.94,SSW,193,1.5,3.5,89,0.00,,FEW,0.00,WeatherDisplay:10.37,2013-07-25 10:42:00,
2013-07-25 05:47:00,79.3,75.8,28.94,South,178,1.1,2.3,89,0.00,,FEW,0.00,WeatherDisplay:10.37,2013-07-25 10:47:00,
2013-07-25 05:52:00,79.3,76.1,28.94,SW,234,0.7,4.6,90,0.00,,FEW,0.00,WeatherDisplay:10.37,2013-07-25 10:52:00,
2013-07-25 05:57:00,79.3,76.1,28.95,South,180,0.0,4.6,90,0.00,,FEW,0.00,WeatherDisplay:10.37,2013-07-25 10:57:00,
2013-07-25 06:02:00,79.3,76.1,28.95,SSE,155,1.1,4.6,90,0.00,,FEW,0.00,WeatherDisplay:10.37,2013-07-25 11:02:00,
2013-07-25 06:07:00,79.2,75.7,28.95,SE,143,0.2,2.3,89,0.00,,FEW,0.00,WeatherDisplay:10.37,2013-07-25 11:07:00,
2013-07-25 06:12:00,79.2,75.7,28.95,SSW,194,0.2,1.2,89,0.00,,FEW,0.00,WeatherDisplay:10.37,2013-07-25 11:12:00,
2013-07-25 06:17:00,79.1,75.6,28.95,South,178,1.4,2.3,89,0.00,,FEW,0.00,WeatherDisplay:10.37,2013-07-25 11:17:00,
2013-07-25 06:22:00,79.1,75.9,28.95,South,173,0.0,4.6,90,0.00,,FEW,0.00,WeatherDisplay:10.37,2013-07-25 11:22:00,
2013-07-25 06:27:00,79.1,75.9,28.95,South,180,1.5,3.5,90,0.00,,FEW,0.00,WeatherDisplay:10.37,2013-07-25 11:27:00,
2013-07-25 06:32:00,79.1,75.9,28.95,SSE,161,0.3,1.2,90,0.00,,FEW,0.00,WeatherDisplay:10.37,2013-07-25 11:32:00,
2013-07-25 06:37:00,79.0,75.8,28.95,SSE,166,2.3,3.5,90,0.00,,FEW,0.00,WeatherDisplay:10.37,2013-07-25 11:37:00,
2013-07-25 06:42:00,79.0,75.8,28.95,SSW,203,1.2,5.8,90,0.00,,FEW,0.00,WeatherDisplay:10.37,2013-07-25 11:42:00,
2013-07-25 06:47:00,79.1,75.9,28.95,South,170,0.8,3.5,90,0.00,,FEW,0.00,WeatherDisplay:10.37,2013-07-25 11:47:00,
2013-07-25 06:52:00,79.2,76.0,28.95,South,174,1.8,2.3,90,0.00,,FEW,0.00,WeatherDisplay:10.37,2013-07-25 11:52:00,
2013-07-25 06:57:00,79.2,76.0,28.95,South,180,2.0,3.5,90,0.00,,FEW,0.00,WeatherDisplay:10.37,2013-07-25 11:57:00,
2013-07-25 07:02:00,79.3,76.1,28.95,SSW,211,1.3,3.5,90,0.00,,FEW,0.00,WeatherDisplay:10.37,2013-07-25 12:02:00,
2013-07-25 07:07:00,79.3,76.1,28.95,South,178,1.2,4.6,90,0.00,,FEW,0.00,WeatherDisplay:10.37,2013-07-25 12:07:00,
2013-07-25 07:12:00,79.4,76.2,28.95,SW,220,1.4,5.8,90,0.00,,FEW,0.00,WeatherDisplay:10.37,2013-07-25 12:12:00,
2013-07-25 07:17:00,79.4,76.5,28.95,SSW,199,2.5,4.6,91,0.00,,FEW,0.00,WeatherDisplay:10.37,2013-07-25 12:17:00,
2013-07-25 07:23:00,79.6,76.7,28.95,SSE,168,3.1,5.8,91,0.00,,FEW,0.00,WeatherDisplay:10.37,2013-07-25 12:23:00,
2013-07-25 07:28:00,79.7,76.8,28.95,SSW,204,1.7,2.3,91,0.00,,FEW,0.00,WeatherDisplay:10.37,2013-07-25 12:28:00,
2013-07-25 07:33:00,79.7,76.5,28.95,SSE,155,1.4,4.6,90,0.00,,FEW,0.00,WeatherDisplay:10.37,2013-07-25 12:33:00,
2013-07-25 07:38:00,79.8,76.6,28.95,SSE,147,0.9,3.5,90,0.00,,FEW,0.00,WeatherDisplay:10.37,2013-07-25 12:38:00,
2013-07-25 07:43:00,79.9,76.7,28.95,SSW,199,2.6,2.6,90,0.00,,FEW,0.00,WeatherDisplay:10.37,2013-07-25 12:43:00,
2013-07-25 07:48:00,80.0,76.8,28.95,SW,228,1.0,3.5,90,0.00,,FEW,0.00,WeatherDisplay:10.37,2013-07-25 12:48:00,
2013-07-25 07:53:00,80.2,77.0,28.96,WSW,242,1.4,4.6,90,0.00,,FEW,0.00,WeatherDisplay:10.37,2013-07-25 12:53:00,
2013-07-25 07:58:00,80.3,76.8,28.96,SW,225,1.9,2.3,89,0.00,,FEW,0.00,WeatherDisplay:10.37,2013-07-25 12:58:00,
2013-07-25 08:03:00,80.5,77.0,28.96,SW,234,0.9,2.3,89,0.00,,FEW,0.00,WeatherDisplay:10.37,2013-07-25 13:03:00,
2013-07-25 08:08:00,80.6,77.1,28.96,SW,215,0.6,3.5,89,0.00,,FEW,0.00,WeatherDisplay:10.37,2013-07-25 13:08:00,
2013-07-25 08:13:00,80.8,77.3,28.96,South,175,2.2,4.6,89,0.00,,FEW,0.00,WeatherDisplay:10.37,2013-07-25 13:13:00,
2013-07-25 08:18:00,81.0,77.4,28.96,South,180,1.5,3.5,89,0.00,,FEW,0.00,WeatherDisplay:10.37,2013-07-25 13:18:00,
2013-07-25 08:23:00,81.1,77.5,28.96,SSE,149,0.7,2.3,89,0.00,,FEW,0.00,WeatherDisplay:10.37,2013-07-25 13:23:00,
2013-07-25 08:28:00,81.3,77.4,28.96,SE,136,1.5,5.8,88,0.00,,FEW,0.00,WeatherDisplay:10.37,2013-07-25 13:28:00,
2013-07-25 08:33:00,81.5,77.6,28.97,SW,215,2.3,4.6,88,0.00,,FEW,0.00,WeatherDisplay:10.37,2013-07-25 13:33:00,
2013-07-25 08:38:00,82.1,78.2,28.97,West,265,2.9,5.8,88,0.00,,FEW,0.00,WeatherDisplay:10.37,2013-07-25 13:38:00,
2013-07-25 08:43:00,82.5,78.2,28.97,SW,235,2.5,5.8,87,0.00,,FEW,0.00,WeatherDisplay:10.37,2013-07-25 13:43:00,
2013-07-25 08:48:00,82.9,77.9,28.97,SSE,166,4.3,6.9,85,0.00,,FEW,0.00,WeatherDisplay:10.37,2013-07-25 13:48:00,
2013-07-25 08:53:00,83.0,78.0,28.97,SW,232,3.9,6.9,85,0.00,,FEW,0.00,WeatherDisplay:10.37,2013-07-25 13:53:00,
2013-07-25 08:58:00,83.3,78.3,28.97,SSW,208,4.1,8.1,85,0.00,,FEW,0.00,WeatherDisplay:10.37,2013-07-25 13:58:00,
2013-07-25 09:03:00,83.8,78.1,28.97,South,187,2.1,5.8,83,0.00,,FEW,0.00,WeatherDisplay:10.37,2013-07-25 14:03:00,
2013-07-25 09:08:00,84.1,78.0,28.97,South,173,4.4,8.4,82,0.00,,FEW,0.00,WeatherDisplay:10.37,2013-07-25 14:08:00,
2013-07-25 09:13:00,84.3,77.8,28.97,WSW,251,6.0,9.2,81,0.00,,FEW,0.00,WeatherDisplay:10.37,2013-07-25 14:13:00,
2013-07-25 09:18:00,84.5,78.0,28.97,SW,228,3.3,5.8,81,0.00,,FEW,0.00,WeatherDisplay:10.37,2013-07-25 14:18:00,
2013-07-25 09:23:00,84.7,78.2,28.97,SW,214,6.5,8.1,81,0.00,,FEW,0.00,WeatherDisplay:10.37,2013-07-25 14:23:00,
2013-07-25 09:28:00,84.9,78.4,28.97,SSW,209,4.4,5.8,81,0.00,,FEW,0.00,WeatherDisplay:10.37,2013-07-25 14:28:00,
2013-07-25 09:33:00,85.2,77.9,28.97,SSW,194,6.3,6.9,79,0.00,,FEW,0.00,WeatherDisplay:10.37,2013-07-25 14:33:00,
2013-07-25 09:38:00,85.4,78.1,28.97,SE,142,4.7,5.8,79,0.00,,FEW,0.00,WeatherDisplay:10.37,2013-07-25 14:38:00,
2013-07-25 09:43:00,85.4,78.1,28.97,SE,137,5.6,10.4,79,0.00,,FEW,0.00,WeatherDisplay:10.37,2013-07-25 14:43:00,
2013-07-25 09:48:00,85.3,78.0,28.97,ESE,111,6.6,10.4,79,0.00,,FEW,0.00,WeatherDisplay:10.37,2013-07-25 14:48:00,
2013-07-25 09:53:00,85.5,78.2,28.98,SSE,164,4.9,9.2,79,0.00,,FEW,0.00,WeatherDisplay:10.37,2013-07-25 14:53:00,
2013-07-25 09:58:00,85.3,78.0,28.98,SSE,147,4.8,5.8,79,0.00,,FEW,0.00,WeatherDisplay:10.37,2013-07-25 14:58:00,
2013-07-25 10:03:00,85.6,78.3,28.98,SSE,148,3.2,6.3,79,0.00,,FEW,0.00,WeatherDisplay:10.37,2013-07-25 15:03:00,
2013-07-25 10:08:00,85.9,78.6,28.98,ESE,106,7.1,7.4,79,0.00,,FEW,0.00,WeatherDisplay:10.37,2013-07-25 15:08:00,
2013-07-25 10:13:00,85.8,78.5,28.98,SSW,213,4.4,11.5,79,0.00,,FEW,0.00,WeatherDisplay:10.37,2013-07-25 15:13:00,
2013-07-25 10:18:00,86.0,78.7,28.98,SE,143,4.8,9.2,79,0.00,,FEW,0.00,WeatherDisplay:10.37,2013-07-25 15:18:00,
2013-07-25 10:23:00,85.9,79.0,28.98,SSE,158,2.3,7.4,80,0.00,,FEW,0.00,WeatherDisplay:10.37,2013-07-25 15:23:00,
2013-07-25 10:28:00,86.1,78.8,28.98,SSE,166,5.2,5.8,79,0.00,,FEW,0.00,WeatherDisplay:10.37,2013-07-25 15:28:00,
2013-07-25 10:33:00,86.2,78.5,28.98,ENE,71,12.5,12.5,78,0.00,,FEW,0.00,WeatherDisplay:10.37,2013-07-25 15:33:00,
2013-07-25 10:38:00,86.3,78.6,28.98,SSW,207,6.1,6.3,78,0.00,,FEW,0.00,WeatherDisplay:10.37,2013-07-25 15:38:00,
2013-07-25 10:43:00,86.7,78.6,28.99,SSE,148,7.6,11.5,77,0.00,,FEW,0.00,WeatherDisplay:10.37,2013-07-25 15:43:00,
2013-07-25 10:48:00,86.6,78.9,28.99,ESE,119,3.1,6.3,78,0.00,,FEW,0.00,WeatherDisplay:10.37,2013-07-25 15:48:00,
2013-07-25 10:53:00,86.4,78.3,28.99,SW,214,7.4,9.2,77,0.00,,FEW,0.00,WeatherDisplay:10.37,2013-07-25 15:53:00,
2013-07-25 10:58:00,86.5,78.8,28.98,SE,140,5.6,6.9,78,0.00,,FEW,0.00,WeatherDisplay:10.37,2013-07-25 15:58:00,
2013-07-25 11:03:00,86.5,78.8,28.98,SSE,150,4.0,5.8,78,0.00,,FEW,0.00,WeatherDisplay:10.37,2013-07-25 16:03:00,
2013-07-25 11:08:00,86.4,78.3,28.98,South,173,5.2,9.2,77,0.00,,FEW,0.00,WeatherDisplay:10.37,2013-07-25 16:08:00,
2013-07-25 11:13:00,86.7,79.0,28.98,SW,235,3.3,8.1,78,0.00,,FEW,0.00,WeatherDisplay:10.37,2013-07-25 16:13:00,
2013-07-25 11:18:00,87.0,78.9,28.98,WSW,246,5.5,5.8,77,0.00,,FEW,0.00,WeatherDisplay:10.37,2013-07-25 16:18:00,
2013-07-25 11:23:00,87.0,78.9,28.98,SSE,147,5.9,8.1,77,0.00,,FEW,0.00,WeatherDisplay:10.37,2013-07-25 16:23:00,
2013-07-25 11:28:00,86.9,78.4,28.98,ESE,114,6.4,6.9,76,0.00,,FEW,0.00,WeatherDisplay:10.37,2013-07-25 16:28:00,
2013-07-25 11:33:00,87.3,79.2,28.98,SW,224,4.1,5.8,77,0.00,,FEW,0.00,WeatherDisplay:10.37,2013-07-25 16:33:00,
2013-07-25 11:38:00,87.7,79.2,28.98,SSW,199,6.1,6.9,76,0.00,,FEW,0.00,WeatherDisplay:10.37,2013-07-25 16:38:00,
2013-07-25 11:43:00,87.7,78.8,28.98,SSE,165,3.6,5.8,75,0.00,,FEW,0.00,WeatherDisplay:10.37,2013-07-25 16:43:00,
2013-07-25 11:48:00,87.5,79.0,28.99,SSW,199,6.6,9.2,76,0.00,,FEW,0.00,WeatherDisplay:10.37,2013-07-25 16:48:00,
2013-07-25 11:53:00,87.5,78.6,28.98,East,90,5.9,11.5,75,0.00,,FEW,0.00,WeatherDisplay:10.37,2013-07-25 16:53:00,
2013-07-25 11:58:00,87.6,78.7,28.98,South,191,7.9,9.2,75,0.00,,FEW,0.00,WeatherDisplay:10.37,2013-07-25 16:58:00,
2013-07-25 12:03:00,87.8,79.3,28.98,SSE,160,6.7,9.5,76,0.00,,FEW,0.00,WeatherDisplay:10.37,2013-07-25 17:03:00,
2013-07-25 12:08:00,87.5,78.6,28.98,SE,145,6.3,8.1,75,0.00,,FEW,0.00,WeatherDisplay:10.37,2013-07-25 17:08:00,
2013-07-25 12:13:00,87.6,79.1,28.98,SE,144,4.3,6.9,76,0.00,,FEW,0.00,WeatherDisplay:10.37,2013-07-25 17:13:00,
2013-07-25 12:18:00,87.9,79.0,28.98,ESE,119,2.6,4.6,75,0.00,,FEW,0.00,WeatherDisplay:10.37,2013-07-25 17:18:00,
2013-07-25 12:23:00,87.7,78.8,28.98,West,263,5.4,6.9,75,0.00,,FEW,0.00,WeatherDisplay:10.37,2013-07-25 17:23:00,
2013-07-25 12:28:00,87.6,78.7,28.98,SSE,162,5.3,10.4,75,0.00,,FEW,0.00,WeatherDisplay:10.37,2013-07-25 17:28:00,
2013-07-25 12:33:00,87.3,78.8,28.98,SSW,211,6.9,8.1,76,0.00,,FEW,0.00,WeatherDisplay:10.37,2013-07-25 17:33:00,
2013-07-25 12:38:00,87.6,77.9,28.98,SW,225,5.4,6.9,73,0.00,,FEW,0.00,WeatherDisplay:10.37,2013-07-25 17:38:00,
2013-07-25 12:43:00,87.8,78.9,28.99,SSE,156,5.4,8.1,75,0.00,,FEW,0.00,WeatherDisplay:10.37,2013-07-25 17:43:00,
2013-07-25 12:48:00,88.1,78.8,28.99,ESE,106,6.3,9.5,74,0.00,,FEW,0.00,WeatherDisplay:10.37,2013-07-25 17:48:00,
2013-07-25 12:53:00,87.6,78.3,28.99,SSE,150,8.7,11.5,74,0.00,,FEW,0.00,WeatherDisplay:10.37,2013-07-25 17:53:00,
2013-07-25 12:58:00,87.3,78.4,28.99,SSE,158,5.8,6.9,75,0.00,,FEW,0.00,WeatherDisplay:10.37,2013-07-25 17:58:00,
2013-07-25 13:03:00,87.9,78.2,28.99,South,177,10.1,12.7,73,0.00,,FEW,0.00,WeatherDisplay:10.37,2013-07-25 18:03:00,
2013-07-25 13:08:00,87.7,78.8,28.99,SE,139,6.0,6.9,75,0.00,,FEW,0.00,WeatherDisplay:10.37,2013-07-25 18:08:00,
2013-07-25 13:13:00,87.6,78.3,28.99,ESE,104,5.2,9.2,74,0.00,,FEW,0.00,WeatherDisplay:10.37,2013-07-25 18:13:00,
2013-07-25 13:18:00,87.9,79.4,28.99,SE,140,2.2,4.2,76,0.00,,FEW,0.00,WeatherDisplay:10.37,2013-07-25 18:18:00,
2013-07-25 13:23:00,87.6,79.1,28.99,SE,142,5.4,8.1,76,0.00,,FEW,0.00,WeatherDisplay:10.37,2013-07-25 18:23:00,
2013-07-25 13:28:00,87.6,79.1,28.99,SSE,152,5.8,9.2,76,0.00,,FEW,0.00,WeatherDisplay:10.37,2013-07-25 18:28:00,
2013-07-25 13:33:00,87.5,78.6,28.99,ENE,59,15.4,15.4,75,0.00,,FEW,0.00,WeatherDisplay:10.37,2013-07-25 18:33:00,
2013-07-25 13:38:00,87.8,78.9,28.99,SE,133,5.6,6.9,75,0.00,,FEW,0.00,WeatherDisplay:10.37,2013-07-25 18:38:00,
2013-07-25 13:43:00,87.7,78.8,28.99,SE,129,8.3,15.0,75,0.00,,FEW,0.00,WeatherDisplay:10.37,2013-07-25 18:43:00,
2013-07-25 13:48:00,87.3,78.8,28.99,SE,145,7.7,9.2,76,0.00,,FEW,0.00,WeatherDisplay:10.37,2013-07-25 18:48:00,
2013-07-25 13:53:00,87.9,79.4,28.99,SSE,152,7.0,10.4,76,0.00,,FEW,0.00,WeatherDisplay:10.37,2013-07-25 18:53:00,
2013-07-25 13:58:00,87.5,79.0,28.99,SE,140,8.9,10.4,76,0.00,,FEW,0.00,WeatherDisplay:10.37,2013-07-25 18:58:00,
2013-07-25 14:03:00,87.5,78.6,28.99,SE,133,9.2,12.7,75,0.00,,FEW,0.00,WeatherDisplay:10.37,2013-07-25 19:03:00,
2013-07-25 14:08:00,87.9,79.4,28.99,SSE,162,6.2,12.7,76,0.00,,FEW,0.00,WeatherDisplay:10.37,2013-07-25 19:08:00,
2013-07-25 14:13:00,88.0,78.7,28.99,SE,137,8.0,11.5,74,0.00,,FEW,0.00,WeatherDisplay:10.37,2013-07-25 19:13:00,
2013-07-25 14:18:00,87.8,78.9,28.99,ESE,123,8.0,11.5,75,0.00,,FEW,0.00,WeatherDisplay:10.37,2013-07-25 19:18:00,
2013-07-25 14:23:00,87.6,79.1,28.98,ESE,106,6.4,12.7,76,0.00,,FEW,0.00,WeatherDisplay:10.37,2013-07-25 19:23:00,
2013-07-25 14:28:00,88.4,79.5,28.98,SSE,151,5.6,9.2,75,0.00,,FEW,0.00,WeatherDisplay:10.37,2013-07-25 19:28:00,
2013-07-25 14:33:00,87.9,78.2,28.98,South,190,7.7,10.4,73,0.00,,FEW,0.00,WeatherDisplay:10.37,2013-07-25 19:33:00,
2013-07-25 14:38:00,88.2,78.9,28.98,SE,128,8.7,11.5,74,0.00,,FEW,0.00,WeatherDisplay:10.37,2013-07-25 19:38:00,
2013-07-25 14:43:00,88.4,79.1,28.98,ESE,104,5.0,6.9,74,0.00,,FEW,0.00,WeatherDisplay:10.37,2013-07-25 19:43:00,
2013-07-25 14:48:00,88.6,79.2,28.98,ENE,76,8.1,10.4,74,0.00,,FEW,0.00,WeatherDisplay:10.37,2013-07-25 19:48:00,
2013-07-25 14:53:00,88.6,79.2,28.98,SE,137,5.9,8.4,74,0.00,,FEW,0.00,WeatherDisplay:10.37,2013-07-25 19:53:00,
2013-07-25 14:58:00,88.0,79.1,28.98,SSE,156,9.1,11.5,75,0.00,,FEW,0.00,WeatherDisplay:10.37,2013-07-25 19:58:00,
2013-07-25 15:03:00,87.6,79.1,28.98,ESE,119,4.5,8.1,76,0.00,,FEW,0.00,WeatherDisplay:10.37,2013-07-25 20:03:00,
2013-07-25 15:08:00,87.6,78.7,28.98,East,90,7.7,12.7,75,0.00,,FEW,0.00,WeatherDisplay:10.37,2013-07-25 20:08:00,
2013-07-25 15:13:00,87.4,78.5,28.98,SSW,204,7.2,10.4,75,0.00,,FEW,0.00,WeatherDisplay:10.37,2013-07-25 20:13:00,
2013-07-25 15:18:00,87.8,79.3,28.98,SE,125,2.4,3.5,76,0.00,,FEW,0.00,WeatherDisplay:10.37,2013-07-25 20:18:00,
2013-07-25 15:23:00,88.1,78.3,28.97,ESE,122,6.0,8.1,73,0.00,,FEW,0.00,WeatherDisplay:10.37,2013-07-25 20:23:00,
2013-07-25 15:28:00,88.0,78.7,28.97,SE,139,8.6,10.4,74,0.00,,FEW,0.00,WeatherDisplay:10.37,2013-07-25 20:28:00,
2013-07-25 15:33:00,87.7,78.8,28.97,ESE,102,4.9,5.8,75,0.00,,FEW,0.00,WeatherDisplay:10.37,2013-07-25 20:33:00,
2013-07-25 15:38:00,88.0,79.1,28.97,ESE,110,5.7,6.9,75,0.00,,FEW,0.00,WeatherDisplay:10.37,2013-07-25 20:38:00,
2013-07-25 15:43:00,88.2,78.4,28.97,SE,133,9.0,13.8,73,0.00,,FEW,0.00,WeatherDisplay:10.37,2013-07-25 20:43:00,
2013-07-25 15:48:00,87.9,79.0,28.97,SE,132,6.3,6.9,75,0.00,,FEW,0.00,WeatherDisplay:10.37,2013-07-25 20:48:00,
2013-07-25 15:53:00,87.9,78.6,28.97,SE,128,9.7,13.8,74,0.00,,FEW,0.00,WeatherDisplay:10.37,2013-07-25 20:53:00,
2013-07-25 15:58:00,87.5,79.0,28.97,SE,132,7.2,12.7,76,0.00,,FEW,0.00,WeatherDisplay:10.37,2013-07-25 20:58:00,
2013-07-25 16:03:00,87.5,79.0,28.97,SSE,161,4.8,6.9,76,0.00,,FEW,0.00,WeatherDisplay:10.37,2013-07-25 21:03:00,
2013-07-25 16:08:00,87.7,78.8,28.97,SE,139,4.9,8.4,75,0.00,,FEW,0.00,WeatherDisplay:10.37,2013-07-25 21:08:00,
2013-07-25 16:13:00,87.6,78.3,28.97,SE,135,6.5,11.5,74,0.00,,FEW,0.00,WeatherDisplay:10.37,2013-07-25 21:13:00,
2013-07-25 16:18:00,87.3,78.4,28.97,NNE,25,16.2,16.2,75,0.00,,FEW,0.00,WeatherDisplay:10.37,2013-07-25 21:18:00,
2013-07-25 16:23:00,86.9,78.4,28.97,SSE,165,10.6,12.7,76,0.00,,FEW,0.00,WeatherDisplay:10.37,2013-07-25 21:23:00,
2013-07-25 16:28:00,86.8,78.7,28.97,East,91,7.6,12.7,77,0.00,,FEW,0.00,WeatherDisplay:10.37,2013-07-25 21:28:00,
2013-07-25 16:33:00,87.2,79.1,28.97,SSE,161,5.5,9.2,77,0.00,,FEW,0.00,WeatherDisplay:10.37,2013-07-25 21:33:00,
2013-07-25 16:38:00,87.1,78.2,28.97,SSE,161,5.2,10.4,75,0.00,,FEW,0.00,WeatherDisplay:10.37,2013-07-25 21:38:00,
2013-07-25 16:43:00,87.1,78.2,28.97,East,92,8.9,11.5,75,0.00,,FEW,0.00,WeatherDisplay:10.37,2013-07-25 21:43:00,
2013-07-25 16:48:00,87.1,78.2,28.98,SE,128,6.5,9.2,75,0.00,,FEW,0.00,WeatherDisplay:10.37,2013-07-25 21:48:00,
2013-07-25 16:53:00,87.2,77.9,28.98,East,94,4.5,10.5,74,0.00,,FEW,0.00,WeatherDisplay:10.37,2013-07-25 21:53:00,
2013-07-25 16:58:00,86.6,77.7,28.98,East,101,8.8,15.0,75,0.00,,FEW,0.00,WeatherDisplay:10.37,2013-07-25 21:58:00,
2013-07-25 17:03:00,86.3,77.8,28.97,SE,124,8.4,13.8,76,0.00,,FEW,0.00,WeatherDisplay:10.37,2013-07-25 22:03:00,
2013-07-25 17:08:00,86.7,78.2,28.97,SE,126,7.8,24.2,76,0.00,,FEW,0.00,WeatherDisplay:10.37,2013-07-25 22:08:00,
2013-07-25 17:13:00,86.8,78.7,28.97,ESE,102,6.1,11.5,77,0.00,,FEW,0.00,WeatherDisplay:10.37,2013-07-25 22:13:00,
2013-07-25 17:18:00,86.6,77.7,28.97,ESE,116,6.3,10.4,75,0.00,,FEW,0.00,WeatherDisplay:10.37,2013-07-25 22:18:00,
2013-07-25 17:23:00,86.8,77.9,28.97,SSW,197,7.7,10.4,75,0.00,,FEW,0.00,WeatherDisplay:10.37,2013-07-25 22:23:00,
2013-07-25 17:28:00,86.8,78.7,28.97,ESE,109,6.0,9.2,77,0.00,,FEW,0.00,WeatherDisplay:10.37,2013-07-25 22:28:00,
2013-07-25 17:33:00,86.9,78.8,28.97,SE,145,10.1,16.8,77,0.00,,FEW,0.00,WeatherDisplay:10.37,2013-07-25 22:33:00,
2013-07-25 17:38:00,86.6,78.1,28.97,SSE,161,9.1,10.4,76,0.00,,FEW,0.00,WeatherDisplay:10.37,2013-07-25 22:38:00,
2013-07-25 17:43:00,86.2,78.1,28.97,ESE,122,10.0,13.8,77,0.00,,FEW,0.00,WeatherDisplay:10.37,2013-07-25 22:43:00,
2013-07-25 17:48:00,86.1,78.4,28.97,ESE,107,8.5,14.7,78,0.00,,FEW,0.00,WeatherDisplay:10.37,2013-07-25 22:48:00,
2013-07-25 17:53:00,86.3,78.6,28.97,SE,128,5.5,6.9,78,0.00,,FEW,0.00,WeatherDisplay:10.37,2013-07-25 22:53:00,
2013-07-25 17:58:00,86.4,77.9,28.97,SE,135,11.8,16.1,76,0.00,,FEW,0.00,WeatherDisplay:10.37,2013-07-25 22:58:00,
2013-07-25 18:03:00,86.3,78.2,28.97,SE,134,5.5,8.1,77,0.00,,FEW,0.00,WeatherDisplay:10.37,2013-07-25 23:03:00,
2013-07-25 18:08:00,86.2,78.1,28.97,East,99,6.6,12.7,77,0.00,,FEW,0.00,WeatherDisplay:10.37,2013-07-25 23:08:00,
2013-07-25 18:13:00,86.1,78.4,28.97,ESE,109,6.5,9.5,78,0.00,,FEW,0.00,WeatherDisplay:10.37,2013-07-25 23:13:00,
2013-07-25 18:18:00,86.2,78.5,28.97,ESE,122,8.0,11.5,78,0.00,,FEW,0.00,WeatherDisplay:10.37,2013-07-25 23:18:00,
2013-07-25 18:23:00,86.1,77.6,28.97,SSW,206,7.1,9.2,76,0.00,,FEW,0.00,WeatherDisplay:10.37,2013-07-25 23:23:00,
2013-07-25 18:28:00,86.0,78.3,28.97,East,90,7.7,9.2,78,0.00,,FEW,0.00,WeatherDisplay:10.37,2013-07-25 23:28:00,
2013-07-25 18:33:00,85.8,78.1,28.97,SE,133,8.3,11.5,78,0.00,,FEW,0.00,WeatherDisplay:10.37,2013-07-25 23:33:00,
2013-07-25 18:38:00,85.7,78.0,28.97,ESE,111,9.6,11.5,78,0.00,,FEW,0.00,WeatherDisplay:10.37,2013-07-25 23:38:00,
2013-07-25 18:43:00,85.6,77.9,28.96,SSE,165,6.2,9.5,78,0.00,,FEW,0.00,WeatherDisplay:10.37,2013-07-25 23:43:00,
2013-07-25 18:48:00,85.4,78.1,28.96,SE,145,7.8,11.5,79,0.00,,FEW,0.00,WeatherDisplay:10.37,2013-07-25 23:48:00,
2013-07-25 18:53:00,85.5,77.9,28.96,SSE,156,6.7,9.2,78,0.00,,FEW,0.00,WeatherDisplay:10.37,2013-07-25 23:53:00,
2013-07-25 18:58:00,85.6,78.3,28.96,ESE,121,6.6,9.2,79,0.00,,FEW,0.00,WeatherDisplay:10.37,2013-07-25 23:58:00,
2013-07-25 19:03:00,85.2,77.9,28.96,South,170,10.0,17.3,79,0.00,,FEW,0.00,WeatherDisplay:10.37,2013-07-26 00:03:00,
2013-07-25 19:08:00,85.0,77.8,28.96,East,84,9.1,13.8,79,0.00,,FEW,0.00,WeatherDisplay:10.37,2013-07-26 00:08:00,
2013-07-25 19:13:00,85.1,78.2,28.96,SSE,152,7.3,10.4,80,0.00,,FEW,0.00,WeatherDisplay:10.37,2013-07-26 00:13:00,
2013-07-25 19:18:00,84.8,78.3,28.96,SE,135,4.1,9.2,81,0.00,,FEW,0.00,WeatherDisplay:10.37,2013-07-26 00:18:00,
2013-07-25 19:23:00,84.7,77.8,28.96,SSE,156,7.6,10.4,80,0.00,,FEW,0.00,WeatherDisplay:10.37,2013-07-26 00:23:00,
2013-07-25 19:28:00,84.5,77.6,28.96,SSE,147,3.1,5.8,80,0.00,,FEW,0.00,WeatherDisplay:10.37,2013-07-26 00:28:00,
2013-07-25 19:33:00,84.4,77.9,28.96,SE,142,7.8,9.2,81,0.00,,FEW,0.00,WeatherDisplay:10.37,2013-07-26 00:33:00,
2013-07-25 19:38:00,84.3,77.8,28.96,SE,137,10.1,16.1,81,0.00,,FEW,0.00,WeatherDisplay:10.37,2013-07-26 00:38:00,
2013-07-25 19:43:00,84.1,78.0,28.96,SE,124,4.9,8.1,82,0.00,,FEW,0.00,WeatherDisplay:10.37,2013-07-26 00:43:00,
2013-07-25 19:48:00,84.0,77.9,28.96,SE,131,7.4,10.4,82,0.00,,FEW,0.00,WeatherDisplay:10.37,2013-07-26 00:48:00,
2013-07-25 19:53:00,83.6,77.5,28.96,SE,137,6.7,10.4,82,0.00,,FEW,0.00,WeatherDisplay:10.37,2013-07-26 00:53:00,
2013-07-25 19:58:00,83.4,77.7,28.97,SSE,151,2.3,4.6,83,0.00,,FEW,0.00,WeatherDisplay:10.37,2013-07-26 00:58:00,
2013-07-25 20:03:00,83.2,77.5,28.97,SSE,168,5.4,8.4,83,0.00,,FEW,0.00,WeatherDisplay:10.37,2013-07-26 01:03:00,
2013-07-25 20:08:00,83.1,77.8,28.97,SSE,151,4.5,8.4,84,0.00,,FEW,0.00,WeatherDisplay:10.37,2013-07-26 01:08:00,
2013-07-25 20:13:00,82.9,77.6,28.97,SSE,168,6.0,8.1,84,0.00,,FEW,0.00,WeatherDisplay:10.37,2013-07-26 01:13:00,
2013-07-25 20:18:00,82.8,77.5,28.96,SSW,203,9.7,12.7,84,0.00,,FEW,0.00,WeatherDisplay:10.37,2013-07-26 01:18:00,
2013-07-25 20:23:00,82.7,77.7,28.97,SSE,166,4.4,5.8,85,0.00,,FEW,0.00,WeatherDisplay:10.37,2013-07-26 01:23:00,
2013-07-25 20:28:00,82.6,77.6,28.97,South,180,8.1,10.4,85,0.00,,FEW,0.00,WeatherDisplay:10.37,2013-07-26 01:28:00,
2013-07-25 20:33:00,82.6,78.0,28.97,SSE,167,5.6,13.8,86,0.00,,FEW,0.00,WeatherDisplay:10.37,2013-07-26 01:33:00,
2013-07-25 20:38:00,82.6,78.0,28.97,SE,135,8.0,8.1,86,0.00,,FEW,0.00,WeatherDisplay:10.37,2013-07-26 01:38:00,
2013-07-25 20:43:00,82.6,78.3,28.97,SE,139,4.6,9.2,87,0.00,,FEW,0.00,WeatherDisplay:10.37,2013-07-26 01:43:00,
2013-07-25 20:48:00,82.5,78.2,28.97,South,180,6.4,9.2,87,0.00,,FEW,0.00,WeatherDisplay:10.37,2013-07-26 01:48:00,
2013-07-25 20:53:00,82.5,77.9,28.97,South,185,5.2,11.5,86,0.00,,FEW,0.00,WeatherDisplay:10.37,2013-07-26 01:53:00,
2013-07-25 20:58:00,82.4,77.8,28.98,SSE,158,10.1,15.0,86,0.00,,FEW,0.00,WeatherDisplay:10.37,2013-07-26 01:58:00,
2013-07-25 21:03:00,82.4,77.8,28.98,SSE,152,8.4,13.8,86,0.00,,FEW,0.00,WeatherDisplay:10.37,2013-07-26 02:03:00,
2013-07-25 21:08:00,82.4,77.8,28.98,South,179,6.1,11.5,86,0.00,,FEW,0.00,WeatherDisplay:10.37,2013-07-26 02:08:00,
2013-07-25 21:13:00,82.4,77.8,28.97,SE,124,9.2,15.0,86,0.00,,FEW,0.00,WeatherDisplay:10.37,2013-07-26 02:13:00,
2013-07-25 21:18:00,82.4,77.8,28.98,WSW,252,5.5,8.1,86,0.00,,FEW,0.00,WeatherDisplay:10.37,2013-07-26 02:18:00,
2013-07-25 21:23:00,82.3,77.7,28.98,SSE,156,7.6,10.4,86,0.00,,FEW,0.00,WeatherDisplay:10.37,2013-07-26 02:23:00,
2013-07-25 21:28:00,82.3,77.7,28.98,East,100,7.4,9.2,86,0.00,,FEW,0.00,WeatherDisplay:10.37,2013-07-26 02:28:00,
2013-07-25 21:33:00,82.3,78.0,28.98,SSE,148,7.0,10.4,87,0.00,,FEW,0.00,WeatherDisplay:10.37,2013-07-26 02:33:00,
2013-07-25 21:38:00,82.2,77.6,28.98,SSE,156,10.2,18.4,86,0.00,,FEW,0.00,WeatherDisplay:10.37,2013-07-26 02:38:00,
2013-07-25 21:43:00,82.3,78.0,28.98,SSE,149,8.8,10.4,87,0.00,,FEW,0.00,WeatherDisplay:10.37,2013-07-26 02:43:00,
2013-07-25 21:48:00,82.2,77.9,28.98,SSW,201,8.4,11.5,87,0.00,,FEW,0.00,WeatherDisplay:10.37,2013-07-26 02:48:00,
2013-07-25 21:53:00,82.1,77.8,28.98,South,176,10.2,15.0,87,0.00,,FEW,0.00,WeatherDisplay:10.37,2013-07-26 02:53:00,
2013-07-25 21:58:00,82.1,77.8,28.98,SE,143,8.8,10.4,87,0.00,,FEW,0.00,WeatherDisplay:10.37,2013-07-26 02:58:00,
2013-07-25 22:03:00,82.1,77.8,28.98,SSE,152,5.8,10.4,87,0.00,,FEW,0.00,WeatherDisplay:10.37,2013-07-26 03:03:00,
2013-07-25 22:08:00,82.1,77.8,28.98,South,187,8.5,10.4,87,0.00,,FEW,0.00,WeatherDisplay:10.37,2013-07-26 03:08:00,
2013-07-25 22:13:00,82.1,77.8,28.98,SSW,199,6.0,12.6,87,0.00,,FEW,0.00,WeatherDisplay:10.37,2013-07-26 03:13:00,
2013-07-25 22:18:00,82.0,77.7,28.97,ESE,122,9.4,11.5,87,0.00,,FEW,0.00,WeatherDisplay:10.37,2013-07-26 03:18:00,
2013-07-25 22:23:00,81.9,77.6,28.98,SSW,196,9.6,13.8,87,0.00,,FEW,0.00,WeatherDisplay:10.37,2013-07-26 03:23:00,
2013-07-25 22:28:00,81.9,77.3,28.98,SSE,158,6.6,10.5,86,0.00,,FEW,0.00,WeatherDisplay:10.37,2013-07-26 03:28:00,
2013-07-25 22:33:00,82.0,77.4,28.98,SE,140,6.7,13.8,86,0.00,,FEW,0.00,WeatherDisplay:10.37,2013-07-26 03:33:00,
2013-07-25 22:38:00,82.0,77.4,28.98,SSE,163,6.7,9.5,86,0.00,,FEW,0.00,WeatherDisplay:10.37,2013-07-26 03:38:00,
2013-07-25 22:43:00,82.0,77.4,28.98,SSE,158,6.2,10.4,86,0.00,,FEW,0.00,WeatherDisplay:10.37,2013-07-26 03:43:00,
2013-07-25 22:48:00,81.9,77.6,28.98,East,95,10.5,13.8,87,0.00,,FEW,0.00,WeatherDisplay:10.37,2013-07-26 03:48:00,
2013-07-25 22:53:00,81.9,77.6,28.98,South,174,4.5,9.2,87,0.00,,FEW,0.00,WeatherDisplay:10.37,2013-07-26 03:53:00,
2013-07-25 22:58:00,81.9,77.6,28.98,SSE,163,4.9,6.9,87,0.00,,FEW,0.00,WeatherDisplay:10.37,2013-07-26 03:58:00,
2013-07-25 23:01:00,81.8,77.5,28.98,ESE,114,5.7,13.8,87,0.00,,FEW,0.00,WeatherDisplay:10.37,2013-07-26 04:01:00,
2013-07-25 23:06:00,81.8,77.9,28.98,SSE,161,11.4,15.0,88,0.00,,FEW,0.00,WeatherDisplay:10.37,2013-07-26 04:06:00,
2013-07-25 23:12:00,81.8,77.9,28.98,SSE,162,9.4,11.5,88,0.00,,FEW,0.00,WeatherDisplay:10.37,2013-07-26 04:12:00,
2013-07-25 23:17:00,81.8,77.9,28.98,SSW,193,7.0,10.4,88,0.00,,FEW,0.00,WeatherDisplay:10.37,2013-07-26 04:17:00,
2013-07-25 23:22:00,81.8,77.9,28.98,South,185,6.2,12.7,88,0.00,,FEW,0.00,WeatherDisplay:10.37,2013-07-26 04:22:00,
2013-07-25 23:27:00,81.7,77.8,28.98,South,175,8.0,11.5,88,0.00,,FEW,0.00,WeatherDisplay:10.37,2013-07-26 04:27:00,
2013-07-25 23:32:00,81.6,77.7,28.98,SE,144,6.0,8.4,88,0.00,,FEW,0.00,WeatherDisplay:10.37,2013-07-26 04:32:00,
2013-07-25 23:37:00,81.4,77.5,28.98,South,170,2.9,5.8,88,0.00,,FEW,0.00,WeatherDisplay:10.37,2013-07-26 04:37:00,
2013-07-25 23:42:00,81.4,77.5,28.98,ESE,103,5.5,10.4,88,0.00,,FEW,0.00,WeatherDisplay:10.37,2013-07-26 04:42:00,
2013-07-25 23:47:00,81.5,77.3,28.98,SSE,159,5.9,8.1,87,0.00,,FEW,0.00,WeatherDisplay:10.37,2013-07-26 04:47:00,
2013-07-25 23:52:00,81.5,77.3,28.99,South,173,4.2,5.8,87,0.00,,FEW,0.00,WeatherDisplay:10.37,2013-07-26 04:52:00,
2013-07-25 23:57:00,81.5,77.6,28.99,SSE,152,6.7,9.2,88,0.00,,FEW,0.00,WeatherDisplay:10.37,2013-07-26 04:57:00,